Regional Weather Roundup
Issued by NWS Upton, NY

Current Version | Previous Version | Graphics & Text | Print | Product List | Glossary Off
Versions: 1 2 3 4 5 6 7 8 9 10 11 12 13 14 15 16 17 18 19 20 21 22 23 24 25 26 27 28 29 30 31 32 33 34 35 36 37 38 39 40 41 42 43 44 45 46 47 48 49 50

773
ASUS41 KOKX 250108
RWROKX

REGIONAL WEATHER ROUNDUP
NATIONAL WEATHER SERVICE NEW YORK NY
900 PM EDT FRI MAR 24 2017

NOTE: "FAIR" INDICATES FEW OR NO CLOUDS BELOW 12,000 FEET WITH NO
SIGNIFICANT WEATHER AND/OR OBSTRUCTIONS TO VISIBILITY.

NYZ071-072-176-178-NJZ106-104-250200-
NEW YORK CITY METRO AREA

CITY           SKY/WX    TMP DP  RH WIND       PRES   REMARKS
Central Park   CLEAR     55  34  45 SW10G17   30.16R
Wall St Helipt CLEAR     54  35  48 W12       30.17R
LaGuardia APRT MOCLDY    57  34  41 SW10      30.14R
Kennedy INTL   MOCLDY    44  39  82 S9        30.16R
Breezy Point     N/A     48 N/A N/A W6          N/A
Newark/Liberty CLOUDY    54  33  45 SW10      30.15R
Teterboro      CLOUDY    53  35  50 SW8       30.14R
$$

NYZ177-179-078>081-250200-
LONG ISLAND NEW YORK

CITY           SKY/WX    TMP DP  RH WIND       PRES   REMARKS
Jones Beach      N/A     45 N/A N/A SW13G20     N/A
Matinecock PT  NOT AVBL
Farmingdale    CLEAR     45  38  76 SW6       30.16R
MacArthur/ISP  MOCLDY    44  39  82 SW9       30.15R
Shirley        PTCLDY    45  38  76 SW9       30.16R
Westhampton    CLOUDY    45  38  76 SW18      30.16R
East Hampton   CLOUDY    45  38  77 W12G21    30.16R
Montauk          N/A     46  39  76 SW13G21   30.16R
$$

NYZ052-065-067-250200-
HUDSON VALLEY

CITY           SKY/WX    TMP DP  RH WIND       PRES   REMARKS
White Plains   CLOUDY    42  33  70 CALM      30.13R
Newburgh       CLOUDY    41  34  75 CALM      30.13R
Montgomery     CLOUDY    37  31  78 CALM      30.11R
Poughkeepsie   PTCLDY    37  31  78 CALM      30.12R
Albany         CLOUDY    42  33  70 S7        30.06R
$$

NJZ001-105-106-008-010-013-015-019>022-104-250200-
NEW JERSEY

CITY           SKY/WX    TMP DP  RH WIND       PRES   REMARKS
Newark/Liberty CLOUDY    54  33  45 SW10      30.15R
Teterboro      CLOUDY    53  35  50 SW8       30.14R
Caldwell       PTCLDY    52  34  50 VRB5      30.14R
Somerville     PTCLDY    51  33  50 CALM      30.13R
Linden           N/A     54  32  43 CALM      30.15R
Sussex         CLOUDY    38  33  82 CALM      30.13R
Andover          N/A     38  33  82 CALM      30.13R
Trenton        CLOUDY    52  32  46 W5        30.14R
Millville      CLOUDY    50  39  66 VRB3      30.17S
Atlantic City  PTCLDY    51  39  63 S8        30.17S
Wrightstown    CLEAR     52  32  46 SW9       30.12S
Toms River     CLOUDY    51  33  50 S6        30.16S
Belmar         CLEAR     54  31  41 SW10      30.15R
$$

PAZ047>061-062-071-250200-
EASTERN PENNSYLVANIA

CITY           SKY/WX    TMP DP  RH WIND       PRES   REMARKS
Philadelphia   PTCLDY    53  34  48 SW7       30.16S
Allentown      CLOUDY    49  33  54 SW3       30.14R
Scranton       CLOUDY    46  38  73 SW3       30.11R
$$

CTZ002-004>006-009-010-012-RIZ004-006-007-MAZ004-011-015-250200-
SOUTHERN NEW ENGLAND
 IN CT

CITY           SKY/WX    TMP DP  RH WIND       PRES   REMARKS
Bradley INTL   MOCLDY    43  30  60 S9        30.10R
Hartford       CLOUDY    44  31  60 S6        30.12R
Danbury        CLOUDY    37  31  78 SW5       30.14R WCI  33
Wtrbury/Oxford CLOUDY    43  28  56 SW6       30.13R
Bridgeport     CLEAR     44  35  70 SW3       30.15R
Meriden        CLOUDY    45  31  58 S8        30.13S
New Haven      MOCLDY    37  30  75 CALM      30.15R
Chester        NOT AVBL
Groton         CLOUDY    44  33  65 SW6       30.14R
Wilimantic     CLOUDY    45  31  58 SW7       30.12R

 IN RI

CITY           SKY/WX    TMP DP  RH WIND       PRES   REMARKS
Providence     CLOUDY    46  29  51 SW17G23   30.12R
Block Island   MOCLDY    43  38  82 SW14      30.16R
Westerly       CLOUDY    46  35  65 SW12      30.15R
 IN MA

CITY           SKY/WX    TMP DP  RH WIND       PRES   REMARKS
Boston         CLOUDY    44  29  55 SW13      30.07F
Worcester      CLOUDY    40  28  62 SW18G26   30.03F WCI  31
Westfield      CLOUDY    43  31  62 S12       30.06F
Provincetown   CLOUDY    41  35  79 SW14      30.11R
Nantucket      CLOUDY    43  37  79 SW18      30.14S
$$

ANZ330-335-338-340-345-350-353-355-250200-
COASTAL MARINE OBSERVATIONS


STATION/POSITION TIME  SKY/WX   TEMP    WIND        PRES    VSBY  WAVE
                                AIR SEA DIR/SP/G                  HT/PER
                 (UTC)          (F)     (DEG/KT/KT) (MB)    (MI)  (FT/S)
NY HARB ENTRANCE 2350            44 42  210/ 21/ 23 1019.9          6/ 6
20 S FIRE ISLAND 0050            45 40  230/ 21/ 25 1020.8          7/ 7
GREAT SOUTH BAY  NOT AVBL
23 SSW MONTAUK P 2350            46 43              1021.0          7/ 7
15 E BARNEGAT LI 0030               42                N/A           6/ 6
HUDSON CANYON    2350            49 45  210/ 19/ 23 1022.1          7/ 6
KINGS POINT      0030            46 38              1020.3
EXECUTION ROCKS  NOT AVBL
CENTRAL LI SOUND 0015            42     230/  8/ 10   N/A           1/ 4
EASTERN LI SOUND NOT AVBL
ROBBINS REEF     0030            55     260/  6/  9 1021.1
$$


>>>>>>>>>>>>>>>>>>>>>>>>>>>> KEY <<<<<<<<<<<<<<<<<<<<<<<<<<<
>                                                          <
>     SKY/WX - Sky Condition/Present Weather               <
>     TMP    - Temperature in Fahrenheit                   <
>     DP     - Dew Point in Fahrenheit                     <
>     RH     - Relative Humidity in Percent                <
>     WIND   - Direction (from) and Speed in MPH           <
>     PRES   - Mean Sea Level Pressure (inches of Hg)      <
>     WCI    - Wind Chill Index                            <
>     VSB    - VISIBILITY IN MILES                         <
>     HX     - HEAT INDEX                                  <
>     TC     - TEMPERATURE IN CELSIUS                      <
>     VRB    - VARIABLE WIND DIRECTION                     <
>                                                          <
>>>>>>>>>>>>>>>>>>>>>>>>>>>> KEY <<<<<<<<<<<<<<<<<<<<<<<<<<<




USA.gov is the U.S. government's official web portal to all federal, state and local government web resources and services.